Location: Treviso
(45.6669°N, 12.2430°E)
Time: 21:06:38
(UTC+01:00)

ISS - Pass Details

Date: 23 November 2023
Orbit: 415 x 417 km, 51.6° (Epoch: 06 December)

Event Time Altitude Azimuth Distance (km) Brightness Sun altitude
Rises 18:14:58 0° 272° (W) 2,358 1.6 -17.4°
Reaches altitude 10° 18:17:12 10° 283° (WNW) 1,496 0.1 -17.8°
Maximum altitude 18:20:16 33° 349° (NNW) 736 -2.6 -18.3°
Enters shadow 18:20:45 31° 8° (N) 763 -2.6 -18.4°
